Total_Precipitation_Accumulation
0.00 0.00 0.00 0.00 0.00 0.00 0.00 0.00 0.00 0.05 0.11 0.16 0.13 0.21 0.19 0.22 0.84 1.30 1.00 1.68 1.99 1.19 1.00 0.80 0.68 0.21 0.14 0.32 0.11 0.04 0.04 0.04 0.02 0.02 0.02 0.07 0.05 0.01 0.05 0.17 0.17 0.19 0.11 0.06 0.07 0.16 0.31 0.30 0.22
0.00 0.00 0.00 0.00 0.00 0.00 0.00 0.00 0.02 0.10 0.36 0.55 0.37 0.34 0.25 0.35 0.64 0.97 0.96 1.28 1.51 0.95 1.22 0.91 1.05 1.11 0.51 0.42 0.21 0.14 0.07 0.02 0.00 0.00 0.01 0.01 0.03 0.03 0.02 0.08 0.11 0.08 0.05 0.04 0.07 0.14 0.93 0.71 0.61
0.00 0.00 0.00 0.00 0.00 0.00 0.00 0.01 0.02 0.05 0.21 0.23 0.24 0.27 0.36 0.47 0.46 0.61 0.72 0.64 0.97 0.93 0.58 0.94 1.10 0.97 0.77 0.44 0.26 0.40 0.45 0.31 0.03 0.01 0.03 0.04 0.04 0.04 0.04 0.12 0.06 0.11 0.11 0.07 0.08 0.06 0.67 1.02 0.74
0.00 0.00 0.00 0.00 0.00 0.00 0.00 0.00 0.02 0.08 0.14 0.18 0.20 0.67 0.40 0.49 0.59 0.72 0.74 0.90 1.58 1.21 1.41 2.04 1.78 1.51 0.84 0.62 0.82 1.07 1.04 0.77 0.49 0.20 0.20 0.14 0.16 0.11 0.08 0.04 0.01 0.01 0.03 0.04 0.06 0.06 0.16 0.26 0.53
0.00 0.00 0.00 0.00 0.00 0.01 0.01 0.05 0.18 0.22 0.21 0.51 0.22 0.70 0.86 0.43 0.35 0.62 1.26 2.27 3.38 2.60 2.46 3.18 4.31 3.80 2.88 1.89 1.41 1.42 1.62 1.26 1.09 1.33 1.34 0.90 0.49 0.47 0.21 0.06 0.02 0.02 0.04 0.05 0.04 0.03 0.09 0.32 0.14
0.00 0.00 0.00 0.00 0.00 0.01 0.04 0.16 0.24 0.32 0.21 0.26 0.33 0.61 0.69 0.32 0.40 0.80 1.81 3.39 6.23 6.22 5.28 5.61 6.69 5.82 4.58 3.52 2.31 2.32 2.10 1.74 1.67 1.51 1.97 2.21 0.90 0.84 0.54 0.17 0.07 0.02 0.04 0.06 0.03 0.01 0.01 0.14 0.08
0.00 0.00 0.00 0.00 0.00 0.00 0.04 0.30 0.47 0.35 0.16 0.20 0.22 0.29 0.93 0.71 0.64 1.36 1.46 2.44 2.54 4.44 5.85 6.89 7.53 8.33 7.50 4.24 3.28 3.29 3.28 2.61 2.24 2.09 1.89 2.07 1.41 1.14 0.82 0.30 0.14 0.04 0.01 0.02 0.01 0.01 0.01 0.01 0.01
0.00 0.00 0.00 0.00 0.00 0.03 0.10 0.11 0.15 0.08 0.10 0.21 0.16 0.80 1.24 1.02 0.64 0.85 1.08 1.79 2.04 2.47 3.24 3.59 3.72 7.19 11.78 7.98 5.02 4.13 3.68 3.27 2.35 2.31 1.65 1.10 1.38 1.48 1.33 0.51 0.21 0.06 0.01 0.01 0.00 0.00 0.00 0.00 0.01
0.00 0.00 0.00 0.01 0.02 0.18 0.25 0.17 0.26 0.11 0.01 0.04 0.21 1.07 0.42 0.22 0.31 0.49 0.93 1.88 2.77 2.72 2.37 1.88 2.59 3.36 5.95 9.66 6.50 5.14 4.06 2.62 2.35 1.94 1.46 1.02 0.84 0.83 0.78 0.45 0.26 0.11 0.01 0.00 0.00 0.00 0.00 0.00 0.00
0.00 0.00 0.00 0.03 0.08 0.25 0.33 0.04 0.18 0.07 0.03 0.19 0.63 1.02 0.34 0.21 0.24 0.38 0.89 1.51 1.86 1.93 2.26 1.84 1.27 1.32 1.96 4.35 4.16 4.49 4.52 2.62 2.09 1.58 1.16 1.00 0.78 0.45 0.35 0.24 0.17 0.14 0.01 0.00 0.00 0.00 0.00 0.00 0.00
0.00 0.00 0.00 0.00 0.06 0.10 0.29 0.01 0.05 0.03 0.06 0.42 0.46 0.60 0.36 0.34 0.35 0.47 0.59 0.83 0.88 1.33 1.64 1.27 1.16 0.93 1.08 2.16 1.83 2.29 3.05 3.30 2.23 1.89 1.12 1.11 0.72 0.36 0.35 0.19 0.15 0.11 0.02 0.00 0.00 0.00 0.00 0.00 0.00
0.00 0.00 0.00 0.00 0.00 0.00 0.00 0.07 0.15 0.09 0.10 0.21 0.45 0.47 0.33 0.41 0.53 0.49 0.64 0.48 0.50 0.70 0.89 0.91 0.51 0.66 0.99 0.96 1.12 1.40 1.41 3.03 2.76 2.11 1.53 1.20 0.76 0.30 0.24 0.12 0.03 0.01 0.00 0.00 0.00 0.00 0.00 0.00 0.00
0.00 0.00 0.00 0.00 0.01 0.00 0.01 0.09 0.11 0.01 0.05 0.22 0.39 0.26 0.25 0.29 0.59 1.26 0.48 0.53 0.77 0.73 0.82 0.81 0.67 0.64 0.58 0.37 0.48 1.14 0.94 1.71 2.71 2.09 1.62 1.17 0.62 0.24 0.10 0.04 0.02 0.01 0.00 0.00 0.00 0.00 0.00 0.00 0.00
0.00 0.00 0.00 0.00 0.00 0.00 0.00 0.18 0.02 0.11 0.13 0.30 0.94 0.29 0.16 0.19 0.16 0.42 0.54 0.43 0.73 0.72 0.90 0.66 0.63 0.65 0.53 0.37 0.37 0.83 0.84 0.95 2.02 1.58 1.10 1.21 0.47 0.12 0.11 0.10 0.02 0.00 0.00 0.00 0.00 0.00 0.00 0.00 0.00
0.00 0.00 0.00 0.04 0.02 0.00 0.02 0.06 0.02 0.16 0.27 0.40 0.34 0.16 0.04 0.04 0.11 0.15 0.28 0.19 0.27 0.53 0.60 0.47 0.69 0.73 0.69 0.47 0.54 0.73 0.81 0.83 1.26 1.03 1.00 1.19 0.51 0.24 0.17 0.11 0.04 0.01 0.00 0.00 0.00 0.00 0.00 0.00 0.00
0.00 0.00 0.00 0.05 0.01 0.00 0.01 0.13 0.25 0.31 0.13 0.33 0.47 0.10 0.03 0.00 0.02 0.03 0.04 0.05 0.16 0.20 0.44 0.64 0.86 1.18 1.11 0.46 0.57 0.67 0.71 0.78 1.02 0.84 0.90 1.24 0.57 0.28 0.13 0.07 0.02 0.01 0.00 0.00 0.00 0.00 0.00 0.00 0.00
0.00 0.00 0.00 0.00 0.00 0.00 0.00 0.00 0.03 0.15 0.27 0.39 0.29 0.04 0.00 0.00 0.01 0.02 0.02 0.02 0.08 0.18 0.30 0.59 0.92 1.09 1.33 1.20 1.45 1.20 0.84 0.74 0.81 0.66 0.74 1.26 0.60 0.24 0.09 0.05 0.01 0.00 0.00 0.00 0.00 0.00 0.00 0.00 0.00
0.00 0.00 0.00 0.00 0.00 0.00 0.00 0.00 0.00 0.02 0.06 0.06 0.05 0.02 0.01 0.00 0.00 0.00 0.01 0.03 0.04 0.07 0.29 0.67 1.07 1.58 2.74 1.92 1.09 0.61 0.59 0.63 0.68 0.71 0.60 1.13 0.56 0.14 0.07 0.03 0.03 0.04 0.00 0.00 0.00 0.00 0.00 0.00 0.00
0.00 0.00 0.00 0.00 0.00 0.00 0.00 0.00 0.00 0.00 0.01 0.03 0.04 0.03 0.01 0.00 0.00 0.01 0.01 0.04 0.03 0.16 0.49 0.75 0.83 0.94 0.82 0.38 0.34 0.33 0.45 0.65 0.73 0.82 0.51 0.95 0.64 0.14 0.07 0.01 0.02 0.04 0.00 0.00 0.00 0.00 0.00 0.00 0.00
0.00 0.00 0.00 0.00 0.00 0.00 0.00 0.00 0.00 0.00 0.00 0.00 0.01 0.01 0.00 0.00 0.00 0.01 0.05 0.11 0.18 0.33 0.37 0.23 0.09 0.06 0.10 0.11 0.15 0.16 0.19 0.41 0.47 1.05 0.72 0.71 0.71 0.17 0.08 0.02 0.01 0.04 0.01 0.00 0.00 0.00 0.00 0.00 0.00
0.00 0.00 0.00 0.00 0.00 0.00 0.00 0.00 0.00 0.00 0.01 0.01 0.01 0.00 0.00 0.00 0.00 0.04 0.06 0.07 0.06 0.04 0.10 0.05 0.04 0.03 0.03 0.05 0.09 0.16 0.10 0.18 0.32 1.01 1.03 0.64 0.56 0.29 0.12 0.07 0.01 0.03 0.01 0.01 0.00 0.00 0.00 0.00 0.00
0.01 0.00 0.00 0.00 0.00 0.02 0.00 0.00 0.01 0.00 0.00 0.00 0.01 0.01 0.01 0.00 0.01 0.01 0.00 0.01 0.01 0.06 0.03 0.06 0.10 0.05 0.05 0.02 0.04 0.06 0.08 0.10 0.18 0.42 0.62 0.60 0.39 0.32 0.17 0.10 0.04 0.04 0.03 0.03 0.02 0.02 0.02 0.02 0.02
0.01 0.00 0.00 0.00 0.00 0.01 0.02 0.00 0.02 0.00 0.00 0.00 0.00 0.00 0.00 0.00 0.00 0.00 0.00 0.01 0.03 0.04 0.06 0.10 0.09 0.11 0.12 0.07 0.08 0.09 0.09 0.17 0.19 0.30 0.54 0.50 0.40 0.32 0.30 0.21 0.14 0.10 0.09 0.11 0.10 0.06 0.08 0.09 0.08
0.00 0.00 0.00 0.00 0.00 0.00 0.01 0.02 0.01 0.01 0.01 0.03 0.02 0.00 0.00 0.00 0.01 0.00 0.01 0.00 0.01 0.03 0.03 0.07 0.12 0.16 0.19 0.18 0.14 0.18 0.23 0.16 0.13 0.22 0.56 0.50 0.40 0.27 0.26 0.29 0.25 0.18 0.17 0.21 0.25 0.23 0.16 0.11 0.11
0.00 0.00 0.01 0.11 0.05 0.02 0.05 0.05 0.03 0.00 0.00 0.01 0.01 0.00 0.00 0.01 0.01 0.00 0.00 0.01 0.03 0.04 0.07 0.15 0.17 0.20 0.21 0.19 0.27 0.21 0.18 0.13 0.08 0.10 0.14 0.37 0.44 0.37 0.26 0.26 0.30 0.26 0.27 0.30 0.27 0.28 0.21 0.26 0.43
0.01 0.00 0.04 0.09 0.06 0.06 0.06 0.02 0.01 0.01 0.00 0.00 0.00 0.00 0.00 0.00 0.00 0.00 0.01 0.03 0.06 0.05 0.12 0.28 0.31 0.25 0.23 0.24 0.27 0.26 0.13 0.10 0.13 0.06 0.11 0.12 0.18 0.29 0.49 0.35 0.31 0.39 0.39 0.51 0.63 0.73 0.79 0.86 1.04
0.01 0.02 0.00 0.00 0.02 0.04 0.01 0.00 0.00 0.00 0.00 0.00 0.00 0.00 0.00 0.00 0.00 0.00 0.01 0.04 0.05 0.06 0.10 0.20 0.21 0.11 0.16 0.18 0.16 0.18 0.18 0.12 0.15 0.14 0.11 0.26 0.31 0.35 0.46 0.48 0.44 0.56 0.67 0.78 0.96 1.07 1.16 1.07 0.99
0.00 0.00 0.00 0.00 0.00 0.02 0.00 0.01 0.02 0.02 0.01 0.00 0.00 0.00 0.00 0.00 0.00 0.00 0.00 0.02 0.04 0.05 0.11 0.16 0.10 0.06 0.02 0.02 0.07 0.12 0.17 0.21 0.20 0.28 0.40 0.55 0.44 0.48 0.53 0.74 0.98 1.03 1.08 0.94 0.96 1.02 1.03 0.91 0.78
0.00 0.00 0.00 0.00 0.00 0.04 0.08 0.02 0.00 0.01 0.01 0.02 0.01 0.00 0.01 0.02 0.02 0.01 0.00 0.01 0.03 0.07 0.11 0.17 0.19 0.15 0.14 0.15 0.17 0.12 0.12 0.25 0.46 0.51 0.84 0.70 0.68 0.93 1.28 1.48 1.38 1.20 1.09 1.09 1.10 1.07 0.99 0.83 0.60
0.00 0.00 0.01 0.02 0.02 0.01 0.03 0.01 0.00 0.00 0.00 0.02 0.04 0.01 0.00 0.00 0.01 0.01 0.01 0.04 0.07 0.09 0.08 0.06 0.23 0.45 0.32 0.28 0.30 0.29 0.42 0.67 0.98 0.96 1.10 1.36 1.64 1.55 1.58 1.46 1.29 1.07 0.89 0.84 0.88 0.79 0.65 0.50 0.31